Time,TemperatureF,DewpointF,PressureIn,WindDirection,WindDirectionDegrees,WindSpeedMPH,WindSpeedGustMPH,Humidity,HourlyPrecipIn,Conditions,Clouds,dailyrainin,SoftwareType,DateUTC
2013-05-05 00:01:00,59.5,35.1,30.04,ESE,110,5.0,7.0,40,0.00,,,0.00,Wunderground v.1.12,2013-05-05 04:01:00,
2013-05-05 00:02:00,59.5,35.1,30.04,ESE,109,3.0,7.0,40,0.00,,,0.00,Wunderground v.1.12,2013-05-05 04:02:00,
2013-05-05 00:06:00,59.5,35.8,30.04,ESE,102,2.0,4.0,41,0.00,,,0.00,Wunderground v.1.12,2013-05-05 04:06:00,
2013-05-05 00:12:00,59.5,36.4,30.04,ESE,119,2.0,7.0,42,0.00,,,0.00,Wunderground v.1.12,2013-05-05 04:12:00,
2013-05-05 00:15:00,59.5,36.4,30.04,ESE,111,3.0,4.0,42,0.00,,,0.00,Wunderground v.1.12,2013-05-05 04:15:00,
2013-05-05 00:16:00,59.5,36.4,30.04,ESE,112,1.0,4.0,42,0.00,,,0.00,Wunderground v.1.12,2013-05-05 04:16:00,
2013-05-05 00:21:00,59.5,36.4,30.04,ESE,109,4.0,4.0,42,0.00,,,0.00,Wunderground v.1.12,2013-05-05 04:21:00,
2013-05-05 00:27:00,59.3,36.8,30.04,ESE,104,3.0,6.0,43,0.00,,,0.00,Wunderground v.1.12,2013-05-05 04:27:00,
2013-05-05 00:34:00,59.2,37.3,30.04,ESE,104,3.0,6.0,44,0.00,,,0.00,Wunderground v.1.12,2013-05-05 04:34:00,
2013-05-05 00:40:00,59.0,37.7,30.04,East,93,6.0,6.0,45,0.00,,,0.00,Wunderground v.1.12,2013-05-05 04:40:00,
2013-05-05 00:45:00,58.9,37.6,30.04,ESE,119,5.0,5.0,45,0.00,,,0.00,Wunderground v.1.12,2013-05-05 04:45:00,
2013-05-05 00:51:00,59.0,38.2,30.04,ESE,115,3.0,5.0,46,0.00,,,0.00,Wunderground v.1.12,2013-05-05 04:51:00,
2013-05-05 00:57:00,58.9,38.1,30.03,East,93,6.0,6.0,46,0.00,,,0.00,Wunderground v.1.12,2013-05-05 04:57:00,
2013-05-05 01:02:00,58.7,38.0,30.03,SE,133,6.0,6.0,46,0.00,,,0.00,Wunderground v.1.12,2013-05-05 05:02:00,
2013-05-05 01:09:00,58.9,38.1,30.03,ESE,113,5.0,6.0,46,0.00,,,0.00,Wunderground v.1.12,2013-05-05 05:09:00,
2013-05-05 01:15:00,58.7,38.5,30.03,East,98,3.0,5.0,47,0.00,,,0.00,Wunderground v.1.12,2013-05-05 05:15:00,
2013-05-05 01:21:00,58.7,38.5,30.03,ESE,115,3.0,8.0,47,0.00,,,0.00,Wunderground v.1.12,2013-05-05 05:21:00,
2013-05-05 01:27:00,58.4,38.2,30.03,ESE,105,3.0,4.0,47,0.00,,,0.00,Wunderground v.1.12,2013-05-05 05:27:00,
2013-05-05 01:32:00,58.3,38.7,30.03,East,98,2.0,5.0,48,0.00,,,0.00,Wunderground v.1.12,2013-05-05 05:32:00,
2013-05-05 01:39:00,58.0,38.9,30.03,ESE,102,4.0,4.0,49,0.00,,,0.00,Wunderground v.1.12,2013-05-05 05:39:00,
2013-05-05 01:45:00,57.8,38.8,30.03,East,88,2.0,2.0,49,0.00,,,0.00,Wunderground v.1.12,2013-05-05 05:45:00,
2013-05-05 01:51:00,57.5,39.0,30.03,East,88,0.0,1.0,50,0.00,,,0.00,Wunderground v.1.12,2013-05-05 05:51:00,
2013-05-05 01:56:00,57.0,39.0,30.03,East,88,0.0,1.0,51,0.00,,,0.00,Wunderground v.1.12,2013-05-05 05:56:00,
2013-05-05 02:01:00,56.7,39.3,30.03,East,88,0.0,0.0,52,0.00,,,0.00,Wunderground v.1.12,2013-05-05 06:01:00,
2013-05-05 02:06:00,56.5,39.1,30.03,East,88,3.0,3.0,52,0.00,,,0.00,Wunderground v.1.12,2013-05-05 06:06:00,
2013-05-05 02:11:00,56.0,39.1,30.03,East,88,2.0,2.0,53,0.00,,,0.00,Wunderground v.1.12,2013-05-05 06:11:00,
2013-05-05 02:16:00,55.7,38.8,30.03,East,88,1.0,2.0,53,0.00,,,0.00,Wunderground v.1.12,2013-05-05 06:16:00,
2013-05-05 02:21:00,55.3,38.9,30.03,East,88,0.0,1.0,54,0.00,,,0.00,Wunderground v.1.12,2013-05-05 06:21:00,
2013-05-05 02:26:00,55.0,39.1,30.03,East,88,1.0,1.0,55,0.00,,,0.00,Wunderground v.1.12,2013-05-05 06:26:00,
2013-05-05 02:31:00,54.7,39.3,30.02,East,88,0.0,3.0,56,0.00,,,0.00,Wunderground v.1.12,2013-05-05 06:31:00,
2013-05-05 02:36:00,54.4,39.0,30.02,East,88,1.0,4.0,56,0.00,,,0.00,Wunderground v.1.12,2013-05-05 06:36:00,
2013-05-05 02:41:00,54.1,39.2,30.02,East,88,0.0,1.0,57,0.00,,,0.00,Wunderground v.1.12,2013-05-05 06:41:00,
2013-05-05 02:46:00,53.8,38.9,30.02,East,88,0.0,3.0,57,0.00,,,0.00,Wunderground v.1.12,2013-05-05 06:46:00,
2013-05-05 02:51:00,53.6,39.6,30.02,East,88,0.0,3.0,59,0.00,,,0.00,Wunderground v.1.12,2013-05-05 06:51:00,
2013-05-05 02:56:00,53.5,39.5,30.02,East,88,0.0,1.0,59,0.00,,,0.00,Wunderground v.1.12,2013-05-05 06:56:00,
2013-05-05 03:01:00,53.3,39.8,30.02,East,88,1.0,2.0,60,0.00,,,0.00,Wunderground v.1.12,2013-05-05 07:01:00,
2013-05-05 03:06:00,53.3,39.8,30.02,East,88,0.0,4.0,60,0.00,,,0.00,Wunderground v.1.12,2013-05-05 07:06:00,
2013-05-05 03:11:00,53.2,39.7,30.02,East,88,0.0,2.0,60,0.00,,,0.00,Wunderground v.1.12,2013-05-05 07:11:00,
2013-05-05 03:16:00,53.2,40.1,30.02,East,88,0.0,1.0,61,0.00,,,0.00,Wunderground v.1.12,2013-05-05 07:16:00,
2013-05-05 03:21:00,53.2,40.1,30.02,East,88,0.0,1.0,61,0.00,,,0.00,Wunderground v.1.12,2013-05-05 07:21:00,
2013-05-05 03:26:00,53.1,40.0,30.02,East,88,2.0,2.0,61,0.00,,,0.00,Wunderground v.1.12,2013-05-05 07:26:00,
2013-05-05 03:31:00,53.1,40.0,30.02,East,88,0.0,3.0,61,0.00,,,0.00,Wunderground v.1.12,2013-05-05 07:31:00,
2013-05-05 03:36:00,52.9,39.8,30.02,East,88,0.0,1.0,61,0.00,,,0.00,Wunderground v.1.12,2013-05-05 07:36:00,
2013-05-05 03:41:00,52.9,40.2,30.02,East,88,3.0,4.0,62,0.00,,,0.00,Wunderground v.1.12,2013-05-05 07:41:00,
2013-05-05 03:46:00,52.8,40.1,30.02,East,88,2.0,2.0,62,0.00,,,0.00,Wunderground v.1.12,2013-05-05 07:46:00,
2013-05-05 03:51:00,52.8,40.5,30.02,East,88,2.0,3.0,63,0.00,,,0.00,Wunderground v.1.12,2013-05-05 07:51:00,
2013-05-05 03:56:00,52.6,40.8,30.02,East,88,1.0,3.0,64,0.00,,,0.00,Wunderground v.1.12,2013-05-05 07:56:00,
2013-05-05 04:01:00,52.8,41.0,30.02,East,88,1.0,2.0,64,0.00,,,0.00,Wunderground v.1.12,2013-05-05 08:01:00,
2013-05-05 04:06:00,52.8,40.5,30.02,East,88,0.0,3.0,63,0.00,,,0.00,Wunderground v.1.12,2013-05-05 08:06:00,
2013-05-05 04:11:00,52.9,40.6,30.02,East,88,2.0,3.0,63,0.00,,,0.00,Wunderground v.1.12,2013-05-05 08:11:00,
2013-05-05 04:16:00,52.8,40.5,30.02,East,88,2.0,3.0,63,0.00,,,0.00,Wunderground v.1.12,2013-05-05 08:16:00,
2013-05-05 04:21:00,52.8,40.5,30.02,East,88,1.0,4.0,63,0.00,,,0.00,Wunderground v.1.12,2013-05-05 08:21:00,
2013-05-05 04:26:00,52.6,40.4,30.02,East,88,0.0,1.0,63,0.00,,,0.00,Wunderground v.1.12,2013-05-05 08:26:00,
2013-05-05 04:31:00,52.3,40.5,30.02,East,88,0.0,1.0,64,0.00,,,0.00,Wunderground v.1.12,2013-05-05 08:31:00,
2013-05-05 04:36:00,52.2,40.4,30.02,East,88,2.0,2.0,64,0.00,,,0.00,Wunderground v.1.12,2013-05-05 08:36:00,
2013-05-05 04:41:00,52.0,40.2,30.02,East,88,0.0,3.0,64,0.00,,,0.00,Wunderground v.1.12,2013-05-05 08:41:00,
2013-05-05 04:46:00,51.7,40.3,30.03,East,88,0.0,1.0,65,0.00,,,0.00,Wunderground v.1.12,2013-05-05 08:46:00,
2013-05-05 04:51:00,51.6,40.2,30.03,East,88,2.0,2.0,65,0.00,,,0.00,Wunderground v.1.12,2013-05-05 08:51:00,
2013-05-05 04:56:00,51.4,40.4,30.03,East,88,0.0,3.0,66,0.00,,,0.00,Wunderground v.1.12,2013-05-05 08:56:00,
2013-05-05 05:01:00,51.3,40.7,30.03,East,88,0.0,2.0,67,0.00,,,0.00,Wunderground v.1.12,2013-05-05 09:01:00,
2013-05-05 05:06:00,51.1,40.5,30.03,East,88,0.0,1.0,67,0.00,,,0.00,Wunderground v.1.12,2013-05-05 09:06:00,
2013-05-05 05:11:00,51.0,40.8,30.03,East,88,0.0,2.0,68,0.00,,,0.00,Wunderground v.1.12,2013-05-05 09:11:00,
2013-05-05 05:16:00,50.8,40.6,30.02,East,88,0.0,3.0,68,0.00,,,0.00,Wunderground v.1.12,2013-05-05 09:16:00,
2013-05-05 05:21:00,50.8,41.0,30.02,East,88,0.0,1.0,69,0.00,,,0.00,Wunderground v.1.12,2013-05-05 09:21:00,
2013-05-05 05:26:00,50.7,40.9,30.02,East,88,0.0,2.0,69,0.00,,,0.00,Wunderground v.1.12,2013-05-05 09:26:00,
2013-05-05 05:31:00,50.5,41.1,30.02,East,88,2.0,3.0,70,0.00,,,0.00,Wunderground v.1.12,2013-05-05 09:31:00,
2013-05-05 05:36:00,50.4,41.0,30.02,East,88,3.0,3.0,70,0.00,,,0.00,Wunderground v.1.12,2013-05-05 09:36:00,
2013-05-05 05:41:00,50.4,41.3,30.02,East,88,2.0,3.0,71,0.00,,,0.00,Wunderground v.1.12,2013-05-05 09:41:00,
2013-05-05 05:46:00,50.7,42.0,30.02,East,88,1.0,4.0,72,0.00,,,0.00,Wunderground v.1.12,2013-05-05 09:46:00,
2013-05-05 05:51:00,51.0,41.9,30.02,East,88,0.0,3.0,71,0.00,,,0.00,Wunderground v.1.12,2013-05-05 09:51:00,
2013-05-05 05:56:00,51.1,42.0,30.02,East,88,3.0,3.0,71,0.00,,,0.00,Wunderground v.1.12,2013-05-05 09:56:00,
2013-05-05 06:01:00,51.0,41.9,30.03,East,88,2.0,3.0,71,0.00,,,0.00,Wunderground v.1.12,2013-05-05 10:01:00,
2013-05-05 06:06:00,51.0,42.3,30.03,East,88,0.0,1.0,72,0.00,,,0.00,Wunderground v.1.12,2013-05-05 10:06:00,
2013-05-05 06:11:00,51.0,42.3,30.03,East,88,2.0,3.0,72,0.00,,,0.00,Wunderground v.1.12,2013-05-05 10:11:00,
2013-05-05 06:16:00,51.0,42.3,30.03,East,88,3.0,3.0,72,0.00,,,0.00,Wunderground v.1.12,2013-05-05 10:16:00,
2013-05-05 06:21:00,51.0,42.3,30.03,East,88,1.0,3.0,72,0.00,,,0.00,Wunderground v.1.12,2013-05-05 10:21:00,
2013-05-05 06:26:00,51.0,42.3,30.03,East,88,0.0,2.0,72,0.00,,,0.00,Wunderground v.1.12,2013-05-05 10:26:00,
2013-05-05 06:31:00,50.8,42.5,30.03,East,88,1.0,3.0,73,0.00,,,0.00,Wunderground v.1.12,2013-05-05 10:31:00,
2013-05-05 06:36:00,50.7,42.4,30.03,East,88,2.0,3.0,73,0.00,,,0.00,Wunderground v.1.12,2013-05-05 10:36:00,
2013-05-05 06:41:00,50.5,42.2,30.03,East,88,0.0,2.0,73,0.00,,,0.00,Wunderground v.1.12,2013-05-05 10:41:00,
2013-05-05 06:46:00,50.7,42.7,30.03,East,88,0.0,3.0,74,0.00,,,0.00,Wunderground v.1.12,2013-05-05 10:46:00,
2013-05-05 06:51:00,50.7,42.7,30.03,East,88,0.0,2.0,74,0.00,,,0.00,Wunderground v.1.12,2013-05-05 10:51:00,
2013-05-05 06:56:00,50.7,42.7,30.03,East,88,3.0,4.0,74,0.00,,,0.00,Wunderground v.1.12,2013-05-05 10:56:00,
2013-05-05 07:01:00,51.0,43.0,30.04,East,88,1.0,3.0,74,0.00,,,0.00,Wunderground v.1.12,2013-05-05 11:01:00,
2013-05-05 07:06:00,51.3,43.3,30.04,East,88,3.0,4.0,74,0.00,,,0.00,Wunderground v.1.12,2013-05-05 11:06:00,
2013-05-05 07:11:00,51.7,43.3,30.04,ENE,71,2.0,5.0,73,0.00,,,0.00,Wunderground v.1.12,2013-05-05 11:11:00,
2013-05-05 07:16:00,52.2,43.8,30.04,ENE,71,0.0,4.0,73,0.00,,,0.00,Wunderground v.1.12,2013-05-05 11:16:00,
2013-05-05 07:21:00,52.6,43.8,30.04,ENE,65,0.0,2.0,72,0.00,,,0.00,Wunderground v.1.12,2013-05-05 11:21:00,
2013-05-05 07:26:00,53.1,43.6,30.04,ENE,65,2.0,3.0,70,0.00,,,0.00,Wunderground v.1.12,2013-05-05 11:26:00,
2013-05-05 07:31:00,53.3,43.8,30.04,ENE,65,3.0,3.0,70,0.00,,,0.00,Wunderground v.1.12,2013-05-05 11:31:00,
2013-05-05 07:36:00,53.8,43.9,30.04,ENE,65,0.0,2.0,69,0.00,,,0.00,Wunderground v.1.12,2013-05-05 11:36:00,
2013-05-05 07:41:00,54.1,43.8,30.04,ENE,65,0.0,0.0,68,0.00,,,0.00,Wunderground v.1.12,2013-05-05 11:41:00,
2013-05-05 07:46:00,54.5,43.8,30.05,ENE,77,0.0,2.0,67,0.00,,,0.00,Wunderground v.1.12,2013-05-05 11:46:00,
2013-05-05 07:51:00,55.3,44.1,30.05,ESE,105,6.0,8.0,66,0.00,,,0.00,Wunderground v.1.12,2013-05-05 11:51:00,
2013-05-05 07:56:00,56.2,44.2,30.05,East,98,4.0,6.0,64,0.00,,,0.00,Wunderground v.1.12,2013-05-05 11:56:00,
2013-05-05 08:01:00,56.7,43.8,30.05,SE,133,3.0,5.0,62,0.00,,,0.00,Wunderground v.1.12,2013-05-05 12:01:00,
2013-05-05 08:06:00,57.3,44.8,30.05,ESE,119,0.0,4.0,63,0.00,,,0.00,Wunderground v.1.12,2013-05-05 12:06:00,
2013-05-05 08:11:00,57.6,43.8,30.05,SE,131,2.0,3.0,60,0.00,,,0.00,Wunderground v.1.12,2013-05-05 12:11:00,
2013-05-05 08:16:00,58.0,43.7,30.05,SE,124,5.0,7.0,59,0.00,,,0.00,Wunderground v.1.12,2013-05-05 12:16:00,
2013-05-05 08:21:00,58.1,43.4,30.05,SE,126,1.0,4.0,58,0.00,,,0.00,Wunderground v.1.12,2013-05-05 12:21:00,
2013-05-05 08:26:00,58.4,43.7,30.05,SE,137,3.0,6.0,58,0.00,,,0.00,Wunderground v.1.12,2013-05-05 12:26:00,
2013-05-05 08:31:00,58.9,44.1,30.05,ESE,115,6.0,7.0,58,0.00,,,0.00,Wunderground v.1.12,2013-05-05 12:31:00,
2013-05-05 08:36:00,59.3,43.6,30.05,SE,137,1.0,5.0,56,0.00,,,0.00,Wunderground v.1.12,2013-05-05 12:36:00,
2013-05-05 08:41:00,59.9,44.2,30.05,East,98,7.0,8.0,56,0.00,,,0.00,Wunderground v.1.12,2013-05-05 12:41:00,
2013-05-05 08:46:00,60.7,43.9,30.05,South,180,8.0,11.0,54,0.00,,,0.00,Wunderground v.1.12,2013-05-05 12:46:00,
2013-05-05 08:51:00,61.0,43.7,30.05,SE,133,4.0,5.0,53,0.00,,,0.00,Wunderground v.1.12,2013-05-05 12:51:00,
2013-05-05 08:56:00,61.0,43.7,30.05,ESE,120,5.0,7.0,53,0.00,,,0.00,Wunderground v.1.12,2013-05-05 12:56:00,
2013-05-05 09:01:00,61.2,43.4,30.05,SE,140,6.0,9.0,52,0.00,,,0.00,Wunderground v.1.12,2013-05-05 13:01:00,
2013-05-05 09:06:00,61.2,43.4,30.05,SE,134,5.0,11.0,52,0.00,,,0.00,Wunderground v.1.12,2013-05-05 13:06:00,
2013-05-05 09:11:00,61.3,43.0,30.05,East,98,10.0,11.0,51,0.00,,,0.00,Wunderground v.1.12,2013-05-05 13:11:00,
2013-05-05 09:16:00,61.6,43.8,30.06,ESE,123,4.0,11.0,52,0.00,,,0.00,Wunderground v.1.12,2013-05-05 13:16:00,
2013-05-05 09:21:00,61.8,43.5,30.06,SE,126,6.0,10.0,51,0.00,,,0.00,Wunderground v.1.12,2013-05-05 13:21:00,
2013-05-05 09:26:00,62.0,43.7,30.06,SE,138,7.0,10.0,51,0.00,,,0.00,Wunderground v.1.12,2013-05-05 13:26:00,
2013-05-05 09:31:00,62.4,43.5,30.05,ESE,119,6.0,6.0,50,0.00,,,0.00,Wunderground v.1.12,2013-05-05 13:31:00,
2013-05-05 09:36:00,62.3,42.9,30.05,ESE,121,11.0,14.0,49,0.00,,,0.00,Wunderground v.1.12,2013-05-05 13:36:00,
2013-05-05 09:41:00,62.0,43.7,30.05,SE,135,5.0,10.0,51,0.00,,,0.00,Wunderground v.1.12,2013-05-05 13:41:00,
2013-05-05 09:46:00,62.0,43.7,30.06,SE,146,8.0,10.0,51,0.00,,,0.00,Wunderground v.1.12,2013-05-05 13:46:00,
2013-05-05 09:51:00,62.1,43.2,30.06,ESE,121,9.0,12.0,50,0.00,,,0.00,Wunderground v.1.12,2013-05-05 13:51:00,
2013-05-05 09:56:00,62.1,43.2,30.06,SE,125,9.0,12.0,50,0.00,,,0.00,Wunderground v.1.12,2013-05-05 13:56:00,
2013-05-05 10:01:00,62.1,43.2,30.06,SE,141,4.0,10.0,50,0.00,,,0.00,Wunderground v.1.12,2013-05-05 14:01:00,
2013-05-05 10:06:00,62.4,45.0,30.06,ESE,112,9.0,13.0,53,0.00,,,0.00,Wunderground v.1.12,2013-05-05 14:06:00,
2013-05-05 10:11:00,62.7,43.3,30.06,SE,131,4.0,10.0,49,0.00,,,0.00,Wunderground v.1.12,2013-05-05 14:11:00,
2013-05-05 10:16:00,63.1,43.6,30.05,ESE,120,9.0,10.0,49,0.00,,,0.00,Wunderground v.1.12,2013-05-05 14:16:00,
2013-05-05 10:21:00,63.1,42.5,30.05,ESE,120,3.0,8.0,47,0.00,,,0.00,Wunderground v.1.12,2013-05-05 14:21:00,
2013-05-05 10:26:00,63.4,42.8,30.05,SE,144,6.0,6.0,47,0.00,,,0.00,Wunderground v.1.12,2013-05-05 14:26:00,
2013-05-05 10:31:00,63.5,42.3,30.05,SE,142,3.0,6.0,46,0.00,,,0.00,Wunderground v.1.12,2013-05-05 14:31:00,
2013-05-05 10:36:00,63.7,42.5,30.05,SE,133,5.0,8.0,46,0.00,,,0.00,Wunderground v.1.12,2013-05-05 14:36:00,
2013-05-05 10:41:00,64.2,43.5,30.05,SE,146,6.0,10.0,47,0.00,,,0.00,Wunderground v.1.12,2013-05-05 14:41:00,
2013-05-05 10:46:00,64.7,42.3,30.05,SE,142,10.0,13.0,44,0.00,,,0.00,Wunderground v.1.12,2013-05-05 14:46:00,
2013-05-05 10:51:00,65.2,42.7,30.05,ESE,113,9.0,9.0,44,0.00,,,0.00,Wunderground v.1.12,2013-05-05 14:51:00,
2013-05-05 10:56:00,65.2,42.7,30.05,ESE,105,5.0,8.0,44,0.00,,,0.00,Wunderground v.1.12,2013-05-05 14:56:00,
2013-05-05 11:01:00,65.5,41.8,30.05,ESE,111,5.0,12.0,42,0.00,,,0.00,Wunderground v.1.12,2013-05-05 15:01:00,
2013-05-05 11:06:00,66.0,41.6,30.05,SSE,147,10.0,12.0,41,0.00,,,0.00,Wunderground v.1.12,2013-05-05 15:06:00,
2013-05-05 11:11:00,66.4,42.6,30.05,ESE,113,6.0,7.0,42,0.00,,,0.00,Wunderground v.1.12,2013-05-05 15:11:00,
2013-05-05 11:16:00,66.9,41.1,30.05,ESE,106,3.0,7.0,39,0.00,,,0.00,Wunderground v.1.12,2013-05-05 15:16:00,
2013-05-05 11:21:00,66.6,41.5,30.05,SSE,163,6.0,10.0,40,0.00,,,0.00,Wunderground v.1.12,2013-05-05 15:21:00,
2013-05-05 11:26:00,66.4,35.6,30.05,SE,139,8.0,10.0,32,0.00,,,0.00,Wunderground v.1.12,2013-05-05 15:26:00,
2013-05-05 11:31:00,66.3,37.1,30.05,SSE,154,11.0,11.0,34,0.00,,,0.00,Wunderground v.1.12,2013-05-05 15:31:00,
2013-05-05 11:36:00,66.4,34.8,30.05,ESE,117,10.0,13.0,31,0.00,,,0.00,Wunderground v.1.12,2013-05-05 15:36:00,
2013-05-05 11:41:00,66.6,32.5,30.05,SSE,163,6.0,12.0,28,0.00,,,0.00,Wunderground v.1.12,2013-05-05 15:41:00,
2013-05-05 11:46:00,66.6,33.3,30.05,SE,142,8.0,14.0,29,0.00,,,0.00,Wunderground v.1.12,2013-05-05 15:46:00,
2013-05-05 11:51:00,66.9,31.8,30.05,ESE,122,14.0,14.0,27,0.00,,,0.00,Wunderground v.1.12,2013-05-05 15:51:00,
2013-05-05 11:56:00,66.9,32.7,30.05,SSE,156,8.0,14.0,28,0.00,,,0.00,Wunderground v.1.12,2013-05-05 15:56:00,
2013-05-05 12:01:00,66.9,32.7,30.05,SSE,156,4.0,8.0,28,0.00,,,0.00,Wunderground v.1.12,2013-05-05 16:01:00,
2013-05-05 12:06:00,67.1,33.8,30.05,SSE,162,6.0,11.0,29,0.00,,,0.00,Wunderground v.1.12,2013-05-05 16:06:00,
2013-05-05 12:11:00,66.9,36.8,30.05,SE,137,6.0,12.0,33,0.00,,,0.00,Wunderground v.1.12,2013-05-05 16:11:00,
2013-05-05 12:16:00,66.9,35.3,30.04,ESE,118,10.0,12.0,31,0.00,,,0.00,Wunderground v.1.12,2013-05-05 16:16:00,
2013-05-05 12:21:00,67.4,38.8,30.04,SE,138,7.0,7.0,35,0.00,,,0.00,Wunderground v.1.12,2013-05-05 16:21:00,
2013-05-05 12:26:00,68.3,40.3,30.04,ESE,102,4.0,9.0,36,0.00,,,0.00,Wunderground v.1.12,2013-05-05 16:26:00,
2013-05-05 12:31:00,68.8,36.9,30.04,East,98,7.0,13.0,31,0.00,,,0.00,Wunderground v.1.12,2013-05-05 16:31:00,
2013-05-05 12:36:00,68.9,38.6,30.04,SE,143,6.0,9.0,33,0.00,,,0.00,Wunderground v.1.12,2013-05-05 16:36:00,
2013-05-05 12:41:00,68.8,36.9,30.04,SE,133,11.0,12.0,31,0.00,,,0.00,Wunderground v.1.12,2013-05-05 16:41:00,
2013-05-05 12:46:00,68.8,36.1,30.03,ESE,108,4.0,8.0,30,0.00,,,0.00,Wunderground v.1.12,2013-05-05 16:46:00,
2013-05-05 12:51:00,68.8,36.1,30.03,East,83,8.0,13.0,30,0.00,,,0.00,Wunderground v.1.12,2013-05-05 16:51:00,
2013-05-05 12:56:00,69.1,38.0,30.03,ESE,106,12.0,12.0,32,0.00,,,0.00,Wunderground v.1.12,2013-05-05 16:56:00,
2013-05-05 13:01:00,69.1,41.0,30.03,ENE,78,7.0,12.0,36,0.00,,,0.00,Wunderground v.1.12,2013-05-05 17:01:00,
2013-05-05 13:06:00,69.1,38.0,30.03,ESE,117,4.0,11.0,32,0.00,,,0.00,Wunderground v.1.12,2013-05-05 17:06:00,
2013-05-05 13:11:00,69.4,38.2,30.03,East,93,9.0,9.0,32,0.00,,,0.00,Wunderground v.1.12,2013-05-05 17:11:00,
2013-05-05 13:16:00,69.6,40.7,30.02,ESE,113,4.0,12.0,35,0.00,,,0.00,Wunderground v.1.12,2013-05-05 17:16:00,
2013-05-05 13:21:00,69.6,33.2,30.02,ENE,69,6.0,13.0,26,0.00,,,0.00,Wunderground v.1.12,2013-05-05 17:21:00,
2013-05-05 13:26:00,69.8,35.2,30.02,East,84,7.0,9.0,28,0.00,,,0.00,Wunderground v.1.12,2013-05-05 17:26:00,
2013-05-05 13:31:00,70.3,39.8,30.01,East,82,2.0,13.0,33,0.00,,,0.00,Wunderground v.1.12,2013-05-05 17:31:00,
2013-05-05 13:36:00,70.4,41.4,30.01,East,88,8.0,14.0,35,0.00,,,0.00,Wunderground v.1.12,2013-05-05 17:36:00,
2013-05-05 13:41:00,70.3,37.4,30.01,East,98,10.0,16.0,30,0.00,,,0.00,Wunderground v.1.12,2013-05-05 17:41:00,
2013-05-05 13:46:00,70.3,35.6,30.01,East,88,10.0,12.0,28,0.00,,,0.00,Wunderground v.1.12,2013-05-05 17:46:00,
2013-05-05 13:51:00,70.3,36.5,30.01,East,93,8.0,13.0,29,0.00,,,0.00,Wunderground v.1.12,2013-05-05 17:51:00,
2013-05-05 13:56:00,70.4,34.8,30.01,East,93,11.0,14.0,27,0.00,,,0.00,Wunderground v.1.12,2013-05-05 17:56:00,
2013-05-05 14:01:00,70.6,37.6,30.00,East,83,5.0,11.0,30,0.00,,,0.00,Wunderground v.1.12,2013-05-05 18:01:00,
2013-05-05 14:06:00,70.9,38.7,30.00,SE,144,8.0,11.0,31,0.00,,,0.00,Wunderground v.1.12,2013-05-05 18:06:00,
2013-05-05 14:11:00,70.9,39.6,30.00,SE,132,13.0,14.0,32,0.00,,,0.00,Wunderground v.1.12,2013-05-05 18:11:00,
2013-05-05 14:16:00,70.9,36.1,30.00,East,79,2.0,16.0,28,0.00,,,0.00,Wunderground v.1.12,2013-05-05 18:16:00,
2013-05-05 14:21:00,71.5,36.7,30.00,ESE,120,4.0,15.0,28,0.00,,,0.00,Wunderground v.1.12,2013-05-05 18:21:00,
2013-05-05 14:26:00,71.3,36.5,30.01,East,88,9.0,16.0,28,0.00,,,0.00,Wunderground v.1.12,2013-05-05 18:26:00,
2013-05-05 14:31:00,71.1,36.3,30.01,NE,52,1.0,12.0,28,0.00,,,0.00,Wunderground v.1.12,2013-05-05 18:31:00,
2013-05-05 14:36:00,71.5,34.8,30.01,ESE,103,10.0,14.0,26,0.00,,,0.00,Wunderground v.1.12,2013-05-05 18:36:00,
2013-05-05 14:41:00,72.1,36.3,30.00,ESE,110,2.0,8.0,27,0.00,,,0.00,Wunderground v.1.12,2013-05-05 18:41:00,
2013-05-05 14:46:00,72.1,37.2,30.00,SSE,162,2.0,10.0,28,0.00,,,0.00,Wunderground v.1.12,2013-05-05 18:46:00,
2013-05-05 14:51:00,72.0,36.2,30.00,East,79,6.0,11.0,27,0.00,,,0.00,Wunderground v.1.12,2013-05-05 18:51:00,
2013-05-05 14:56:00,71.8,36.9,30.00,SSE,149,8.0,13.0,28,0.00,,,0.00,Wunderground v.1.12,2013-05-05 18:56:00,
2013-05-05 15:01:00,71.8,35.0,30.00,East,82,4.0,10.0,26,0.00,,,0.00,Wunderground v.1.12,2013-05-05 19:01:00,
2013-05-05 15:06:00,72.3,39.1,30.00,SSE,152,11.0,16.0,30,0.00,,,0.00,Wunderground v.1.12,2013-05-05 19:06:00,
2013-05-05 15:11:00,72.1,37.2,30.00,East,98,11.0,12.0,28,0.00,,,0.00,Wunderground v.1.12,2013-05-05 19:11:00,
2013-05-05 15:16:00,72.1,36.3,30.00,NE,45,4.0,8.0,27,0.00,,,0.00,Wunderground v.1.12,2013-05-05 19:16:00,
2013-05-05 15:21:00,72.5,38.4,30.00,ESE,102,4.0,12.0,29,0.00,,,0.00,Wunderground v.1.12,2013-05-05 19:21:00,
2013-05-05 15:26:00,72.7,39.5,30.00,SSE,147,4.0,11.0,30,0.00,,,0.00,Wunderground v.1.12,2013-05-05 19:26:00,
2013-05-05 15:31:00,72.5,35.6,30.00,East,83,8.0,14.0,26,0.00,,,0.00,Wunderground v.1.12,2013-05-05 19:31:00,
2013-05-05 15:36:00,72.5,37.5,30.00,NE,52,6.0,13.0,28,0.00,,,0.00,Wunderground v.1.12,2013-05-05 19:36:00,
2013-05-05 15:41:00,72.3,37.4,29.99,East,88,9.0,13.0,28,0.00,,,0.00,Wunderground v.1.12,2013-05-05 19:41:00,
2013-05-05 15:46:00,72.1,37.2,29.99,ESE,110,4.0,9.0,28,0.00,,,0.00,Wunderground v.1.12,2013-05-05 19:46:00,
2013-05-05 15:51:00,72.3,39.1,29.99,NE,46,1.0,12.0,30,0.00,,,0.00,Wunderground v.1.12,2013-05-05 19:51:00,
2013-05-05 15:56:00,72.5,38.4,29.99,ESE,105,6.0,13.0,29,0.00,,,0.00,Wunderground v.1.12,2013-05-05 19:56:00,
2013-05-05 16:01:00,72.7,39.5,29.99,East,88,9.0,13.0,30,0.00,,,0.00,Wunderground v.1.12,2013-05-05 20:01:00,
2013-05-05 16:06:00,72.5,35.6,29.99,East,98,5.0,9.0,26,0.00,,,0.00,Wunderground v.1.12,2013-05-05 20:06:00,
2013-05-05 16:11:00,72.3,37.4,29.98,SE,126,9.0,11.0,28,0.00,,,0.00,Wunderground v.1.12,2013-05-05 20:11:00,
2013-05-05 16:16:00,72.1,36.3,29.98,SSE,154,5.0,12.0,27,0.00,,,0.00,Wunderground v.1.12,2013-05-05 20:16:00,
2013-05-05 16:21:00,72.1,36.3,29.98,East,98,5.0,9.0,27,0.00,,,0.00,Wunderground v.1.12,2013-05-05 20:21:00,
2013-05-05 16:26:00,72.3,35.5,29.98,SE,125,2.0,13.0,26,0.00,,,0.00,Wunderground v.1.12,2013-05-05 20:26:00,
2013-05-05 16:31:00,72.0,38.9,29.98,SE,134,9.0,14.0,30,0.00,,,0.00,Wunderground v.1.12,2013-05-05 20:31:00,
2013-05-05 16:36:00,71.5,40.9,29.98,ENE,65,9.0,9.0,33,0.00,,,0.00,Wunderground v.1.12,2013-05-05 20:36:00,
2013-05-05 16:41:00,71.1,36.3,29.98,ESE,110,6.0,12.0,28,0.00,,,0.00,Wunderground v.1.12,2013-05-05 20:41:00,
2013-05-05 16:46:00,71.3,36.5,29.98,East,82,8.0,13.0,28,0.00,,,0.00,Wunderground v.1.12,2013-05-05 20:46:00,
2013-05-05 16:51:00,71.3,36.5,29.98,ESE,102,6.0,10.0,28,0.00,,,0.00,Wunderground v.1.12,2013-05-05 20:51:00,
2013-05-05 16:56:00,71.1,36.3,29.98,NE,44,6.0,13.0,28,0.00,,,0.00,Wunderground v.1.12,2013-05-05 20:56:00,
2013-05-05 17:01:00,71.1,36.3,29.98,ENE,70,6.0,13.0,28,0.00,,,0.00,Wunderground v.1.12,2013-05-05 21:01:00,
2013-05-05 17:06:00,71.3,39.9,29.98,NE,56,4.0,7.0,32,0.00,,,0.00,Wunderground v.1.12,2013-05-05 21:06:00,
2013-05-05 17:11:00,71.3,36.5,29.97,ENE,58,1.0,7.0,28,0.00,,,0.00,Wunderground v.1.12,2013-05-05 21:11:00,
2013-05-05 17:16:00,71.6,36.8,29.97,East,88,4.0,9.0,28,0.00,,,0.00,Wunderground v.1.12,2013-05-05 21:16:00,
2013-05-05 17:21:00,72.1,36.3,29.97,SE,127,8.0,11.0,27,0.00,,,0.00,Wunderground v.1.12,2013-05-05 21:21:00,
2013-05-05 17:26:00,72.1,37.2,29.97,East,98,11.0,12.0,28,0.00,,,0.00,Wunderground v.1.12,2013-05-05 21:26:00,
2013-05-05 17:31:00,72.0,37.1,29.97,East,98,6.0,14.0,28,0.00,,,0.00,Wunderground v.1.12,2013-05-05 21:31:00,
2013-05-05 17:36:00,72.0,37.1,29.97,East,93,3.0,13.0,28,0.00,,,0.00,Wunderground v.1.12,2013-05-05 21:36:00,
2013-05-05 17:41:00,71.8,37.8,29.97,East,93,9.0,10.0,29,0.00,,,0.00,Wunderground v.1.12,2013-05-05 21:41:00,
2013-05-05 17:46:00,71.6,35.8,29.97,ESE,110,8.0,12.0,27,0.00,,,0.00,Wunderground v.1.12,2013-05-05 21:46:00,
2013-05-05 17:51:00,71.6,36.8,29.97,ESE,102,3.0,13.0,28,0.00,,,0.00,Wunderground v.1.12,2013-05-05 21:51:00,
2013-05-05 17:56:00,71.5,36.7,29.97,East,84,12.0,17.0,28,0.00,,,0.00,Wunderground v.1.12,2013-05-05 21:56:00,
2013-05-05 18:01:00,71.5,36.7,29.97,SE,139,12.0,12.0,28,0.00,,,0.00,Wunderground v.1.12,2013-05-05 22:01:00,
2013-05-05 18:06:00,71.6,38.5,29.97,East,93,8.0,10.0,30,0.00,,,0.00,Wunderground v.1.12,2013-05-05 22:06:00,
2013-05-05 18:11:00,71.6,34.9,29.97,East,88,2.0,14.0,26,0.00,,,0.00,Wunderground v.1.12,2013-05-05 22:11:00,
2013-05-05 18:16:00,71.5,37.6,29.97,SSE,164,7.0,11.0,29,0.00,,,0.00,Wunderground v.1.12,2013-05-05 22:16:00,
2013-05-05 18:21:00,71.6,35.8,29.97,ENE,69,10.0,10.0,27,0.00,,,0.00,Wunderground v.1.12,2013-05-05 22:21:00,
2013-05-05 18:26:00,71.5,34.8,29.97,ENE,75,10.0,14.0,26,0.00,,,0.00,Wunderground v.1.12,2013-05-05 22:26:00,
2013-05-05 18:31:00,71.3,35.6,29.97,ESE,105,11.0,13.0,27,0.00,,,0.00,Wunderground v.1.12,2013-05-05 22:31:00,
2013-05-05 18:36:00,71.3,36.5,29.97,SE,138,4.0,8.0,28,0.00,,,0.00,Wunderground v.1.12,2013-05-05 22:36:00,
2013-05-05 18:42:00,71.3,34.6,29.97,SE,128,7.0,10.0,26,0.00,,,0.00,Wunderground v.1.12,2013-05-05 22:42:00,
2013-05-05 18:47:00,71.3,32.6,29.97,ESE,123,12.0,13.0,24,0.00,,,0.00,Wunderground v.1.12,2013-05-05 22:47:00,
2013-05-05 18:52:00,71.1,31.4,29.97,SE,146,4.0,13.0,23,0.00,,,0.00,Wunderground v.1.12,2013-05-05 22:52:00,
2013-05-05 18:57:00,70.8,32.2,29.97,East,81,5.0,14.0,24,0.00,,,0.00,Wunderground v.1.12,2013-05-05 22:57:00,
2013-05-05 19:02:00,70.4,31.9,29.97,ESE,120,7.0,13.0,24,0.00,,,0.00,Wunderground v.1.12,2013-05-05 23:02:00,
2013-05-05 19:07:00,70.3,31.8,29.97,ENE,67,7.0,9.0,24,0.00,,,0.00,Wunderground v.1.12,2013-05-05 23:07:00,
2013-05-05 19:12:00,70.1,31.6,29.97,East,93,4.0,15.0,24,0.00,,,0.00,Wunderground v.1.12,2013-05-05 23:12:00,
2013-05-05 19:17:00,69.9,32.5,29.97,East,98,5.0,8.0,25,0.00,,,0.00,Wunderground v.1.12,2013-05-05 23:17:00,
2013-05-05 19:22:00,69.8,32.4,29.97,East,98,6.0,7.0,25,0.00,,,0.00,Wunderground v.1.12,2013-05-05 23:22:00,
2013-05-05 19:27:00,69.6,32.2,29.97,ESE,120,9.0,14.0,25,0.00,,,0.00,Wunderground v.1.12,2013-05-05 23:27:00,
2013-05-05 19:32:00,69.4,32.0,29.97,SSE,148,4.0,12.0,25,0.00,,,0.00,Wunderground v.1.12,2013-05-05 23:32:00,
2013-05-05 19:37:00,69.3,32.9,29.97,SSE,152,3.0,8.0,26,0.00,,,0.00,Wunderground v.1.12,2013-05-05 23:37:00,
2013-05-05 19:42:00,69.1,33.7,29.97,SSE,147,0.0,5.0,27,0.00,,,0.00,Wunderground v.1.12,2013-05-05 23:42:00,
2013-05-05 19:47:00,68.9,33.5,29.97,ESE,114,5.0,8.0,27,0.00,,,0.00,Wunderground v.1.12,2013-05-05 23:47:00,
2013-05-05 19:52:00,68.8,33.4,29.97,ENE,71,5.0,12.0,27,0.00,,,0.00,Wunderground v.1.12,2013-05-05 23:52:00,
2013-05-05 19:57:00,68.4,34.0,29.97,East,98,0.0,5.0,28,0.00,,,0.00,Wunderground v.1.12,2013-05-05 23:57:00,
2013-05-05 20:02:00,67.9,33.6,29.97,ESE,103,7.0,9.0,28,0.00,,,0.00,Wunderground v.1.12,2013-05-06 00:02:00,
2013-05-05 20:07:00,67.6,34.2,29.97,ENE,76,2.0,8.0,29,0.00,,,0.00,Wunderground v.1.12,2013-05-06 00:07:00,
2013-05-05 20:12:00,67.4,34.0,29.97,ENE,70,2.0,10.0,29,0.00,,,0.00,Wunderground v.1.12,2013-05-06 00:12:00,
2013-05-05 20:17:00,67.3,33.9,29.97,East,88,0.0,5.0,29,0.00,,,0.00,Wunderground v.1.12,2013-05-06 00:17:00,
2013-05-05 20:22:00,67.1,33.8,29.97,East,79,1.0,6.0,29,0.00,,,0.00,Wunderground v.1.12,2013-05-06 00:22:00,
2013-05-05 20:27:00,66.8,34.3,29.97,East,79,3.0,7.0,30,0.00,,,0.00,Wunderground v.1.12,2013-05-06 00:27:00,
2013-05-05 20:32:00,66.3,34.7,29.97,East,79,0.0,3.0,31,0.00,,,0.00,Wunderground v.1.12,2013-05-06 00:32:00,
2013-05-05 20:37:00,66.0,35.3,29.97,East,88,1.0,3.0,32,0.00,,,0.00,Wunderground v.1.12,2013-05-06 00:37:00,
2013-05-05 20:42:00,65.5,34.8,29.97,East,88,1.0,2.0,32,0.00,,,0.00,Wunderground v.1.12,2013-05-06 00:42:00,
2013-05-05 20:47:00,65.2,34.6,29.97,East,88,0.0,2.0,32,0.00,,,0.00,Wunderground v.1.12,2013-05-06 00:47:00,
2013-05-05 20:52:00,64.7,34.9,29.97,East,82,0.0,4.0,33,0.00,,,0.00,Wunderground v.1.12,2013-05-06 00:52:00,
2013-05-05 20:57:00,64.2,35.2,29.97,East,82,0.0,5.0,34,0.00,,,0.00,Wunderground v.1.12,2013-05-06 00:57:00,
2013-05-05 21:02:00,63.7,34.8,29.97,East,82,1.0,2.0,34,0.00,,,0.00,Wunderground v.1.12,2013-05-06 01:02:00,
2013-05-05 21:07:00,63.4,34.5,29.97,East,82,0.0,4.0,34,0.00,,,0.00,Wunderground v.1.12,2013-05-06 01:07:00,
2013-05-05 21:12:00,62.9,34.8,29.97,East,82,0.0,3.0,35,0.00,,,0.00,Wunderground v.1.12,2013-05-06 01:12:00,
2013-05-05 21:17:00,62.6,35.3,29.97,East,82,1.0,2.0,36,0.00,,,0.00,Wunderground v.1.12,2013-05-06 01:17:00,
2013-05-05 21:22:00,62.1,34.8,29.97,East,82,1.0,2.0,36,0.00,,,0.00,Wunderground v.1.12,2013-05-06 01:22:00,
2013-05-05 21:27:00,61.8,35.2,29.98,East,82,0.0,1.0,37,0.00,,,0.00,Wunderground v.1.12,2013-05-06 01:27:00,
2013-05-05 21:32:00,61.3,35.5,29.98,East,82,0.0,1.0,38,0.00,,,0.00,Wunderground v.1.12,2013-05-06 01:32:00,
2013-05-05 21:37:00,60.9,35.1,29.98,East,82,0.0,1.0,38,0.00,,,0.00,Wunderground v.1.12,2013-05-06 01:37:00,
2013-05-05 21:42:00,60.4,35.3,29.98,East,82,1.0,1.0,39,0.00,,,0.00,Wunderground v.1.12,2013-05-06 01:42:00,
2013-05-05 21:47:00,60.1,35.7,29.98,East,82,0.0,1.0,40,0.00,,,0.00,Wunderground v.1.12,2013-05-06 01:47:00,
2013-05-05 21:52:00,59.6,35.2,29.98,East,82,0.0,0.0,40,0.00,,,0.00,Wunderground v.1.12,2013-05-06 01:52:00,
2013-05-05 21:57:00,59.2,35.5,29.98,East,82,0.0,1.0,41,0.00,,,0.00,Wunderground v.1.12,2013-05-06 01:57:00,
2013-05-05 22:02:00,58.9,35.8,29.98,East,82,0.0,0.0,42,0.00,,,0.00,Wunderground v.1.12,2013-05-06 02:02:00,
2013-05-05 22:07:00,58.4,36.0,29.98,East,82,0.0,1.0,43,0.00,,,0.00,Wunderground v.1.12,2013-05-06 02:07:00,
2013-05-05 22:12:00,58.1,35.7,29.98,East,82,0.0,0.0,43,0.00,,,0.00,Wunderground v.1.12,2013-05-06 02:12:00,
2013-05-05 22:17:00,57.6,35.8,29.98,East,82,0.0,0.0,44,0.00,,,0.00,Wunderground v.1.12,2013-05-06 02:17:00,
2013-05-05 22:22:00,57.3,36.1,29.98,East,82,0.0,0.0,45,0.00,,,0.00,Wunderground v.1.12,2013-05-06 02:22:00,
2013-05-05 22:27:00,57.0,37.0,29.99,East,82,0.0,1.0,47,0.00,,,0.00,Wunderground v.1.12,2013-05-06 02:27:00,
2013-05-05 22:32:00,56.7,37.2,29.99,East,82,0.0,1.0,48,0.00,,,0.00,Wunderground v.1.12,2013-05-06 02:32:00,
2013-05-05 22:37:00,56.3,37.4,29.99,East,82,1.0,2.0,49,0.00,,,0.00,Wunderground v.1.12,2013-05-06 02:37:00,
2013-05-05 22:42:00,56.2,37.3,29.99,East,82,3.0,3.0,49,0.00,,,0.00,Wunderground v.1.12,2013-05-06 02:42:00,
2013-05-05 22:47:00,56.0,38.6,29.99,NE,52,5.0,5.0,52,0.00,,,0.00,Wunderground v.1.12,2013-05-06 02:47:00,
2013-05-05 22:52:00,56.0,37.6,29.99,NE,38,4.0,5.0,50,0.00,,,0.00,Wunderground v.1.12,2013-05-06 02:52:00,
2013-05-05 22:57:00,56.6,38.2,29.99,NE,39,3.0,5.0,50,0.00,,,0.00,Wunderground v.1.12,2013-05-06 02:57:00,
2013-05-05 23:02:00,57.3,38.8,29.99,NE,35,2.0,5.0,50,0.00,,,0.00,Wunderground v.1.12,2013-05-06 03:02:00,
2013-05-05 23:07:00,58.0,38.9,29.99,NNE,33,2.0,3.0,49,0.00,,,0.00,Wunderground v.1.12,2013-05-06 03:07:00,
2013-05-05 23:12:00,58.4,39.3,29.98,NNE,32,4.0,7.0,49,0.00,,,0.00,Wunderground v.1.12,2013-05-06 03:12:00,
2013-05-05 23:17:00,58.9,38.7,29.98,NNE,16,3.0,9.0,47,0.00,,,0.00,Wunderground v.1.12,2013-05-06 03:17:00,
2013-05-05 23:22:00,59.2,38.4,29.98,NNE,22,2.0,5.0,46,0.00,,,0.00,Wunderground v.1.12,2013-05-06 03:22:00,
2013-05-05 23:27:00,59.3,39.1,29.98,NNE,22,0.0,3.0,47,0.00,,,0.00,Wunderground v.1.12,2013-05-06 03:27:00,
2013-05-05 23:32:00,59.3,39.1,29.98,NNE,26,4.0,5.0,47,0.00,,,0.00,Wunderground v.1.12,2013-05-06 03:32:00,
2013-05-05 23:37:00,59.0,38.8,29.98,NNE,23,5.0,7.0,47,0.00,,,0.00,Wunderground v.1.12,2013-05-06 03:37:00,
2013-05-05 23:42:00,59.0,38.2,29.98,NNE,33,4.0,7.0,46,0.00,,,0.00,Wunderground v.1.12,2013-05-06 03:42:00,
2013-05-05 23:47:00,58.9,38.1,29.98,NE,36,5.0,8.0,46,0.00,,,0.00,Wunderground v.1.12,2013-05-06 03:47:00,
2013-05-05 23:52:00,58.9,38.1,29.98,NE,39,4.0,6.0,46,0.00,,,0.00,Wunderground v.1.12,2013-05-06 03:52:00,
2013-05-05 23:57:00,58.9,38.7,29.98,NNE,23,4.0,6.0,47,0.00,,,0.00,Wunderground v.1.12,2013-05-06 03:57:00,